Tracking 19219 objects as of 21-Jul-2018
HD Live streaming from Space Station
objects crossing your sky now

NANOSAT(1)

Track NANOSAT(1) now!
10-day predictions
NANOSAT(1) is classified as:


NORAD ID: 28493
Int'l Code: 2004-049B
Perigee: 653.8 km
Apogee: 660.8 km
Inclination: 98.2 °
Period: 97.7 minutes
Semi major axis: 7028 km
RCS: 0.2736 m2 (medium)
Launch date: December 18, 2004
Source: Spain (SPN)
Launch site: FRENCH GUIANA (FRGUI)

Will maintain contact with Spanish zone in Antarctica; extremely small magnetic and solar sensors.
aabbcc
Your satellite tracking list
Your tracking list is empty




NASA's NSSDC Master Catalog

Two Line Element Set (TLE):
1 28493U 04049B   18202.22058943  .00000048  00000-0  15339-4 0  9996
2 28493  98.1632 279.9814 0005006 155.0587 205.0863 14.73432716729683
Source of the keplerian elements: AFSPC